Omaha Offutt, NE

10:50 AM CDT on June 26, 2017 (GMT -0500)
Offutt Air Force Base

Weather History for KOFF - January, 2014

Change the Weather History Date:

Monday, January 13, 2014

  Actual Average Record
Temperature  
Mean Temperature 36 °F -  
Max Temperature 46 °F 30 °F 51 °F (2002)
Min Temperature 27 °F 14 °F -11 °F (2011)
Degree Days  
Heating Degree Days 28    
Moisture  
Dew Point 27 °F    
Average Humidity 71    
Maximum Humidity 97    
Minimum Humidity 40    
Precipitation  
Precipitation 0.00 in - - ()
Sea Level Pressure  
Sea Level Pressure 29.79 in    
Wind  
Wind Speed 9 mph (West)    
Max Wind Speed 15 mph    
Max Gust Speed 23 mph    
Visibility 10 miles    
Events      
Averages and records for this station are not official NWS values.
T = Trace of Precipitation, MM = Missing Value Source: NWS Daily Summary

Daily Weather History Graph

Daily Weather History Graph

Search for Another Location

Airport or City:

Trip Planner

Search our weather history database for the weather conditions in past years. The results will help you decide how hot, cold, wet, or windy it might be!

Date:

Astronomy

Jan. 13, 2014 Rise Set
Actual Time 7:47 AM CST 5:17 PM CST
Civil Twilight 7:16 AM CST 5:48 PM CST
Nautical Twilight 6:42 AM CST 6:22 PM CST
Astronomical Twilight 6:09 AM CST 6:55 PM CST
Moon 3:33 PM CST (1/13) 5:36 AM CST (1/13)
Length of Visible Light 10h 31m
Length of Day
9h 30m
Waxing Gibbous, 95% of the Moon is Illuminated
Jan 13
Waxing Gibbous
Jan 15
Full
Jan 23
Last Quarter
Jan 30
New
Feb 6
First Quarter

Hourly Weather History & Observations

Time (CST) Temp. Windchill Dew Point Humidity Pressure Visibility Wind Dir Wind Speed Gust Speed Precip Events Conditions
12:58 AM 38.8 °F 36.5 °F 38.1 °F 97% 29.68 in 10.0 mi WSW 3.5 mph - 0.00 in   Partly Cloudy
1:58 AM 37.4 °F 30.8 °F 36.5 °F 97% 29.70 in 10.0 mi WNW 9.2 mph - N/A   Mostly Cloudy
2:58 AM 36.7 °F 29.9 °F 33.4 °F 88% 29.72 in 10.0 mi WNW 9.2 mph - N/A   Partly Cloudy
3:58 AM 36.1 °F 28.7 °F 30.6 °F 80% 29.75 in 10.0 mi WNW 10.4 mph - N/A   Mostly Cloudy
4:58 AM 37.6 °F 30.5 °F 31.1 °F 77% 29.78 in 10.0 mi NW 10.4 mph 21.9 mph N/A   Clear
5:58 AM 36.7 °F 27.6 °F 31.8 °F 83% 29.80 in 10.0 mi NW 15.0 mph 21.9 mph N/A   Clear
6:58 AM 35.1 °F 25.9 °F 30.7 °F 84% 29.83 in 10.0 mi NW 13.8 mph - N/A   Clear
7:58 AM 32.4 °F 22.1 °F 25.2 °F 75% 29.85 in 10.0 mi NW 15.0 mph 23.0 mph N/A   Clear
8:58 AM 32.4 °F 22.1 °F 24.4 °F 73% 29.88 in 10.0 mi NW 15.0 mph - N/A   Clear
9:58 AM 34.9 °F 26.2 °F 24.3 °F 65% 29.89 in 10.0 mi NNW 12.7 mph - N/A   Clear
10:58 AM 37.8 °F 31.3 °F 25.2 °F 60% 29.90 in 10.0 mi NW 9.2 mph - N/A   Clear
11:58 AM 40.3 °F 33.0 °F 25.3 °F 55% 29.86 in 10.0 mi WNW 12.7 mph - N/A   Clear
12:58 PM 42.8 °F 37.5 °F 24.3 °F 48% 29.84 in 10.0 mi West 9.2 mph - N/A   Clear
1:58 PM 45.0 °F 40.6 °F 21.6 °F 40% 29.81 in 10.0 mi WSW 8.1 mph - N/A   Clear
2:58 PM 45.9 °F 42.9 °F 22.5 °F 40% 29.81 in 10.0 mi South 5.8 mph - N/A   Clear
3:58 PM 46.6 °F - 24.3 °F 42% 29.80 in 10.0 mi SSW 10.4 mph 17.3 mph N/A   Clear
4:58 PM 43.7 °F 40.3 °F 25.9 °F 50% 29.79 in 10.0 mi South 5.8 mph - N/A   Clear
5:58 PM 35.8 °F 30.1 °F 25.0 °F 65% 29.79 in 10.0 mi South 6.9 mph - N/A   Clear
6:58 PM 31.8 °F 24.6 °F 24.6 °F 75% 29.76 in 10.0 mi South 8.1 mph - N/A   Clear
7:58 PM 33.1 °F 27.7 °F 26.1 °F 75% 29.75 in 10.0 mi SSE 5.8 mph - N/A   Clear
8:58 PM 32.4 °F 29.1 °F 27.9 °F 83% 29.75 in 10.0 mi East 3.5 mph - N/A   Clear
9:58 PM 34.7 °F - 26.8 °F 73% 29.73 in 10.0 mi SW 1.2 mph - N/A   Clear
10:58 PM 27.9 °F 20.6 °F 26.2 °F 94% 29.72 in 10.0 mi WNW 6.9 mph - N/A   Clear
11:58 PM 33.8 °F 27.0 °F 28.0 °F 79% 29.71 in 10.0 mi WNW 8.1 mph - N/A   Clear